Preview of NWS' New Version of Forecast
This preview is not operational and should not be used for support decisions.

Regional Weather Roundup (RWR)

Issued by National Weather Service (NWS)

                            
000
ASUS43 KMKX 201021
RWRWI 

WISCONSIN REGIONAL WEATHER ROUNDUP
NATIONAL WEATHER SERVICE MILWAUKEE/SULLIVAN WI
500 AM CDT THU JUN 20 2019

NOTE: "FAIR" INDICATES FEW OR NO CLOUDS BELOW 12,000 FEET WITH NO
SIGNIFICANT WEATHER AND/OR OBSTRUCTIONS TO VISIBILITY.

WIZ001-002-006>008-014>016-023>028-201100-
NORTHWEST WISCONSIN
  
CITY           SKY/WX    TMP DP  RH WIND       PRES   REMARKS
SUPERIOR ARPT  FAIR      46  46 100 CALM      29.84S                  
ASHLAND        FAIR      43  43 100 SW3       29.85R FOG              
HAYWARD        FAIR      50  47  89 NE6       29.83R                  
SIREN          FAIR      56  47  73 E6        29.82R                  
CUMBERLAND     FAIR      55  45  67 E5        29.83R                  
RICE LAKE      FAIR      58  47  67 E5        29.83R                  
CHETEK         FAIR      56  49  77 CALM      29.83R                  
LADYSMITH      FAIR      51  46  81 NE3       29.84R                  
EAU CLAIRE     FAIR      57  52  83 CALM      29.79R                  
MENOMONIE      FAIR      56  51  82 E3        29.80R                  
NEW RICHMOND   FAIR      59  50  70 E6        29.79S                  
OSCEOLA        MOCLDY    61  51  70 E3        29.82R                  
$$
 
WIZ003>005-009-010-017-018-201100-
NORTH CENTRAL WISCONSIN
  
CITY           SKY/WX    TMP DP  RH WIND       PRES   REMARKS
MANITOWISH WTR FAIR      44  44 100 CALM      29.83R                  
ARBOR VITAE    FAIR      46  44  93 CALM      29.82R                  
WOODRUFF       FAIR      46  44  93 CALM      29.82R                  
RHINELANDER    FAIR      50  43  77 CALM      29.82R                  
EAGLE RIVER    FAIR      40  40  99 CALM      29.82S                  
LAND O LAKES   FAIR      41  41 100 CALM      29.85R                  
PHILLIPS       FAIR      46  46 100 CALM      29.82S                  
TOMAHAWK       FAIR      43  42  97 CALM      29.82R                  
MEDFORD        FAIR      49  43  81 NE5       29.81R                  
MERRILL        FAIR      46  45  95 CALM      29.81R                  
$$
 
WIZ029-030-035-036-043>047-201100-
CENTRAL WISCONSIN
  
CITY           SKY/WX    TMP DP  RH WIND       PRES   REMARKS
WAUSAU         FAIR      53  42  66 NW6       29.77R                  
MOSINEE        FAIR      50  43  76 N5        29.80R                  
MARSHFIELD     FAIR      54  45  71 NE7       29.77R                  
STEVENS POINT  FAIR      50  46  85 N3        29.78R                  
WAUPACA        FAIR      57  49  74 N7        29.76R                  
WAUTOMA        FAIR      56  49  77 N7        29.75R                  
WISC RAPIDS    FAIR      56  47  71 NE7       29.77R                  
CAMP DOUGLAS   FAIR      51  51 100 W6        29.76R                  
$$
 
WIZ011>013-019>022-031-037>040-048>050-201100-
NORTHEAST WISCONSIN
  
CITY           SKY/WX    TMP DP  RH WIND       PRES   REMARKS
ANTIGO         FAIR      49  42  76 NE6       29.80R                  
SHAWANO        FAIR      56  47  71 NE8       29.76R                  
OCONTO         FAIR      53  46  77 N7        29.75S                  
STURGEON BAY   FAIR      54  49  83 N7        29.74S                  
GREEN BAY      FAIR      56  49  77 N9        29.73S                  
MANITOWOC      CLOUDY    56  47  71 N9G18     29.71S                  
APPLETON       FAIR      54  43  66 N12       29.72R                  
CLINTONVILLE   FAIR      55  45  69 N6        29.76R                  
OSHKOSH        FAIR      59  51  75 N13       29.71R                  
$$
 
WIZ032>034-041-042-053>061-201100-
SOUTHWEST WISCONSIN
  
CITY           SKY/WX    TMP DP  RH WIND       PRES   REMARKS
LA CROSSE      FAIR      60  56  86 CALM      29.77R                  
SPARTA         FAIR      48  48  99 CALM      29.78R                  
VIROQUA        FAIR      55  55  98 CALM      29.78R                  
BOSCOBEL       FAIR      55  54  96 CALM      29.76R                  
PRAIRIE DU CHI CLOUDY    59  58  96 NW5       29.76R FOG              
PLATTEVILLE    FAIR      56  56 100 N7        29.74R                  
$$

WIZ056-057-062-063-064-067-068-201100-
SOUTH CENTRAL WISCONSIN
  
CITY           SKY/WX    TMP DP  RH WIND       PRES   REMARKS
REEDSBURG      FAIR      56  55  95 N6        29.74R                  
BARABOO/DELLS  FAIR      56  52  85 N5        29.75R                  
LONE ROCK      FAIR      58  54  86 N5        29.73R                  
MINERAL POINT  FAIR      55  55 100 NW6       29.75R                  
MADISON        FAIR      57  54  89 N7        29.70R                  
MIDDLETON      FAIR      58  55  89 N7        29.72R                  
WATERTOWN      CLOUDY    57  55  91 N8        29.68R                  
MONROE         FAIR      56  54  94 N6        29.71R                  
JANESVILLE     CLOUDY    59  59 100 NW6       29.68R                  
$$
 
WIZ051-052-058>065-066-070>072-201100-
SOUTHEAST WISCONSIN
  
CITY           SKY/WX    TMP DP  RH WIND       PRES   REMARKS
MILWAUKEE      LGT RAIN  53  51  93 N17       29.64F FOG              
WAUKESHA       CLOUDY    54  54 100 N8        29.66F                  
MILWAUKEE/TIMM CLOUDY    54  50  87 N10G16    29.67S                  
RACINE         RAIN      52  50  93 N13       29.65F FOG              
KENOSHA        CLOUDY    57  56  96 N9        29.62F                  
FOND DU LAC    CLOUDY    61  49  64 NE14      29.70S                  
SHEBOYGAN      CLOUDY    56  47  71 NE14      29.69S                  
WEST BEND      CLOUDY    54  52  94 NE8G16    29.68S                  
JUNEAU         CLOUDY    56  50  80 N9        29.71R                  
$$

LSZ147-162-201100-
LAKE SUPERIOR
  
STATION/POSITION TIME  TEMP    WIND        PRES    WAVE
                       AIR SEA DIR/SP/G            HT/PER
                 (UTC) (F)     (DEG/KT/KT) (MB)    (FT/S)
W MID LAKE BUOY  0950   43 38  320/  4/  4 1010.5R   0
$$
 
LMZ867-665-643>646-201100-
LAKE MICHIGAN
  
STATION/POSITION TIME  TEMP    WIND        PRES    WAVE
                       AIR SEA DIR/SP/G            HT/PER
                 (UTC) (F)     (DEG/KT/KT) (MB)    (FT/S)
N MID LAKE BUOY  1000   44      20/  8/ 10 1007.7
NORTHPORT PIER   0940   56     360/  2/  4 1007.1S
KEWAUNEE LAKESHO 0948   55      30/  5/ 12 1005.9R
SHEBOYGAN LAKESH 1000   49      10/ 19/ 21 1005.2F
MILWAUKEE LAKESH 0950   52     360/ 18/ 21   N/A
S MID LAKE BUOY  1000   50      20/ 12/ 14 1002.9
KENOSHA   LAKESH 1000   55      10/ 14/ 18 1003.0
$$

TC  - TEMPERATURE IN CELSIUS
VSB - VISIBILITY IN STATUTE MILES
WCI - WIND CHILL INDEX
HX  - HEAT INDEX